Cloud_Cover
60 100 71 100 100 100 100 32 5 0 4 0 0 5 5 3 2 4 0 0 0 1 3 4 5 48 69 100 100 100 100 100 100 100 100 100 100 100 100 100 100 100 100
100 100 100 100 100 100 100 46 4 4 1 0 0 1 5 5 5 5 4 4 0 0 0 0 0 4 5 5 8 33 37 25 80 100 100 100 100 100 100 100 100 100 100
100 100 100 100 100 99 16 5 5 1 2 5 5 0 0 0 0 0 0 0 0 0 0 0 0 0 0 0 0 4 5 2 5 5 11 60 92 98 98 100 100 100 100
100 100 100 100 97 7 5 7 5 4 2 0 0 0 0 0 0 0 0 0 0 0 0 0 0 0 0 0 0 0 0 4 4 3 4 2 5 5 5 5 16 90 100
100 100 100 67 79 54 28 5 0 0 0 0 0 0 0 0 0 0 0 0 0 0 0 2 4 4 5 26 5 5 5 5 23 32 6 5 5 5 5 0 0 0 5
97 100 15 68 59 38 36 4 0 0 0 0 0 0 0 0 0 0 0 0 0 4 3 0 0 0 0 0 0 0 0 0 1 1 4 3 3 2 2 0 0 0 0
67 14 66 80 5 5 5 0 0 0 0 0 0 0 0 0 0 0 0 0 0 0 0 0 0 0 0 0 0 0 0 0 0 0 0 0 5 0 0 0 0 2 0
18 68 45 4 5 5 0 0 0 0 0 0 0 0 0 0 0 0 0 0 0 0 0 0 0 0 0 0 0 0 0 0 0 0 5 5 4 5 5 5 5 4 4
5 13 5 5 5 3 0 0 0 0 0 0 0 0 0 0 0 0 0 0 0 0 0 0 0 0 0 0 0 0 0 0 0 0 5 5 5 5 5 5 5 5 5
14 56 5 5 5 5 0 0 0 0 0 0 0 0 0 0 0 0 0 2 0 2 5 5 0 3 1 1 0 0 0 0 0 3 5 5 5 5 5 22 88 100 86
14 5 5 68 74 23 0 4 0 0 0 0 0 0 0 0 0 0 4 0 0 3 3 5 5 5 5 5 2 0 0 0 4 5 5 5 5 6 13 62 90 97 100
50 5 22 82 73 5 0 0 0 0 0 0 0 0 0 0 0 0 0 0 0 0 0 3 5 4 0 0 0 0 0 0 5 5 5 90 72 94 85 100 100 100 100
80 43 39 52 6 0 0 0 0 0 0 0 0 0 0 0 1 0 0 0 0 0 0 0 0 0 0 0 0 0 0 5 5 5 5 63 100 100 100 100 100 100 100
14 10 5 1 0 0 0 0 0 0 0 0 2 4 5 5 5 0 0 0 1 0 0 0 0 0 0 0 2 5 1 1 4 5 5 20 91 100 100 100 100 100 100
41 5 0 0 0 0 0 2 2 0 5 5 5 5 5 5 5 5 0 0 0 4 0 0 0 0 0 5 2 5 5 5 93 100 84 85 100 99 100 100 100 100 100
2 5 0 0 0 5 0 0 5 5 5 11 11 5 5 4 0 0 0 0 0 5 59 1 5 5 5 5 5 5 5 7 5 8 100 90 67 100 100 100 100 100 100
5 5 5 5 5 2 0 5 5 18 68 33 5 5 5 0 0 0 0 0 1 5 33 5 5 5 5 5 5 5 45 100 51 76 80 100 100 100 100 100 100 100 100
5 5 5 5 5 5 5 5 6 5 5 4 5 5 4 0 0 0 0 1 5 5 85 62 5 10 5 5 5 39 97 100 87 35 5 99 100 100 100 100 100 100 100
5 5 5 5 5 5 6 6 0 0 0 5 5 2 0 0 0 0 5 5 36 83 83 86 29 5 5 94 89 26 5 0 5 5 34 83 100 100 100 100 100 100 100
5 5 5 5 5 5 2 2 0 2 5 5 5 0 0 0 0 8 55 92 87 5 5 41 77 99 92 11 5 2 4 5 45 81 71 40 98 76 65 100 100 100 100
26 86 5 5 5 0 0 0 4 5 5 5 0 0 0 0 5 45 100 81 96 15 84 100 94 60 15 5 5 5 94 100 90 100 54 77 43 5 61 23 15 44 97
96 5 5 5 0 0 5 5 5 5 5 3 4 0 0 4 5 12 28 90 100 100 88 97 69 97 12 5 10 100 100 100 96 96 100 100 82 83 56 5 32 100 100
7 5 5 5 0 5 5 5 5 5 5 5 3 1 5 5 5 5 5 73 100 55 14 21 5 5 76 85 100 100 100 100 100 97 100 100 62 70 97 78 100 100 100
5 5 0 2 5 5 3 0 5 5 5 5 5 5 5 5 5 99 74 100 5 5 5 5 41 78 100 100 100 100 100 100 99 95 100 100 82 38 57 100 100 100 100
5 5 5 5 5 0 0 4 5 5 5 5 5 16 5 74 92 100 100 94 30 5 2 29 96 83 28 63 97 100 93 100 100 100 93 100 96 98 100 100 100 100 100
5 5 5 3 4 0 5 5 5 59 6 5 78 11 6 98 100 100 100 90 39 3 74 96 7 5 5 17 91 100 100 100 100 95 80 100 94 94 100 100 100 100 100